User: anonymous   Login
Location: Oronoko Observatory
(41.9167°N, 86.3833°W)
Time: 11:49:10
(UTC-05:00)
Language:

PAYLOAD A - Orbit

View from above orbital plane
View from above orbital plane
View from above satellite
View from above satellite

Ground track
Ground track

The orbit data is extracted from the following two-line orbital elements,

1 27840U 03031A   15058.38399306  .00000101  00000-0  44297-4 0  9990
2 27840 098.2161 081.5166 0099335 133.1859 045.3963 14.38778533612408
Epoch (UTC): 27 February 2015 09:12:57
Eccentricity: 0.0099335
inclination: 98.2161°
perigee height: 691 km
apogee height: 833 km
right ascension of ascending node: 81.5166°
argument of perigee: 133.1859°
revolutions per day: 14.38778533
mean anomaly at epoch: 45.3963°
orbit number at epoch: 61240

The dashed part of the orbit path shows where the satellite is in the earth's shadow,  

DLR